[[{"header":{"parameterUnit":"m.s-1","parameterCategory":1,"la1":30.2991,"la2":30.254,"lo1":-89.0895,"lo2":-89.0444,"dy":0.0017,"dx":0.0017,"nx":28,"ny":28,"refTime":"2024-05-31T21:00:00:Z","depth":0,"parameterNumber":2,"parameterNumberName":"U-component_of_WINDS"},"data":[0,0,0,0,0,0,0,0,0,0,0,0,0,0,0,0,0,0,0,0,0,0,0,0,0,0,0,0,0,0,0,0,0,0,0,0,0,0,0,0,0,0,0,0,0,0,0,0,0,0,0,0,0,0,0,0,0,0,3.6049,3.6049,0,3.6011,3.601,3.601,3.5952,3.5951,3.595,3.5949,3.5911,3.591,3.591,0,0,0,0,0,0,0,0,0,0,0,0,0,3.6073,3.6073,3.6049,3.6049,3.6048,3.6011,3.601,3.601,3.5952,3.5951,3.595,3.5949,3.5911,3.591,3.591,0,0,0,0,0,0,0,0,0,0,0,0,0,3.6051,3.6073,3.6049,3.6015,3.6012,3.6011,3.601,3.601,3.5953,3.5951,3.595,3.5948,3.5911,3.591,3.591,3.594,0,0,3.591,3.591,0,0,0,0,0,0,0,0,3.6053,3.605,3.6021,3.6018,3.6014,3.5985,3.6004,3.5986,3.5953,3.5975,3.5949,3.5947,3.5937,3.5934,3.593,3.5938,3.5937,3.591,3.591,3.591,3.591,0,0,0,0,0,0,0,3.6054,3.6052,3.6034,3.602,3.6016,3.6002,3.5997,3.6001,3.5965,3.5973,3.5969,3.5965,3.5934,3.5931,3.5929,3.5936,3.591,3.591,3.591,3.591,3.5965,3.5966,0,0,0,0,0,0,3.6061,3.6053,3.6035,3.6033,3.603,3.6002,3.5997,3.5996,3.5965,3.5958,3.5966,3.5962,3.5932,3.5929,3.5927,3.5959,3.591,3.591,3.591,3.5963,3.5965,3.5967,0,0,0,0,0,0,3.6061,3.606,3.6037,3.6042,3.6038,3.6004,3.6002,3.5996,3.5992,3.5959,3.5953,3.5969,3.593,3.5928,3.5937,3.5957,3.591,3.591,3.5961,3.5964,3.5966,3.6024,0,0,0,0,0,0,3.6062,3.606,3.6071,3.6043,3.6038,3.6047,3.6004,3.5996,3.5992,3.5986,3.596,3.5955,3.5929,3.5937,3.5937,3.5956,3.5909,3.5959,3.5962,3.5965,3.602,3.6028,3.6035,0,0,0,0,0,3.6063,3.609,3.6072,3.607,3.6051,3.6049,3.6046,3.6016,3.5994,3.6004,3.5983,3.5955,3.5955,3.5939,3.5938,3.5957,3.5958,3.5962,3.5965,3.6017,3.6026,3.6035,0,0,0,0,0,0,3.6123,3.6086,3.6066,3.6084,3.607,3.6039,3.6052,3.6027,3.6019,3.6014,3.5977,3.5972,3.5986,3.5972,3.5955,3.5984,3.5952,3.5956,3.5992,3.6001,3.6008,3.6011,3.5909,0,0,0,0,0,3.6138,3.6139,3.6106,3.6125,3.6119,3.6087,3.6085,3.6062,3.6046,3.604,3.602,3.6006,3.6002,3.6001,3.5996,3.6018,3.6011,3.603,3.6038,3.6044,3.6047,3.6057,3.6065,3.5978,3.5978,3.5978,0,0,3.6169,3.6149,3.6152,3.6137,3.6123,3.6125,3.6082,3.6086,3.6087,3.6041,3.6048,3.6033,3.6014,3.603,3.6036,3.6019,3.6069,3.6048,3.6053,3.6053,3.6061,3.6069,3.6077,3.598,3.598,3.598,0,0,3.6228,3.6213,3.6226,3.6213,3.6193,3.6171,3.6174,3.6147,3.6134,3.6141,3.6106,3.6106,3.6101,3.6089,3.6082,3.6134,3.6107,3.6133,3.6171,3.6181,3.6188,3.6194,3.6211,3.6218,3.6136,3.6137,3.6137,0,3.6269,3.6271,3.6236,3.6242,3.6236,3.6193,3.6206,3.6195,3.6175,3.6171,3.6153,3.6144,3.6129,3.6141,3.6153,3.6149,3.6151,3.6136,3.6189,3.6195,3.62,3.6216,3.6223,3.614,3.6139,3.6139,3.6139,0,3.6323,3.6324,3.6337,3.6318,3.6313,3.6322,3.6289,3.6288,3.6266,3.6246,3.6252,3.6232,3.6221,3.6222,3.6201,3.623,3.622,3.6196,3.6164,3.6212,3.6227,3.6233,3.6144,3.6143,3.6142,3.6141,0,0,3.6419,3.6379,3.6384,3.6374,3.6348,3.6348,3.6355,3.6344,3.6344,3.633,3.6335,3.6331,3.6308,3.63,3.6276,3.6285,3.6325,3.6259,3.6258,3.6272,3.6356,3.6374,3.6382,3.6308,3.6309,3.631,3.6357,0,3.6472,3.6481,3.645,3.6468,3.6468,3.6426,3.6432,3.6416,3.6397,3.6394,3.6373,3.637,3.634,3.6335,3.6341,3.6319,3.6342,3.6315,3.6311,3.6311,3.6317,3.639,3.641,3.6456,3.6363,3.6364,3.6364,0,3.6535,3.6524,3.6542,3.6513,3.6512,3.6518,3.6504,3.6502,3.6483,3.6468,3.6459,3.6431,3.6435,3.6403,3.6408,3.6391,3.6387,3.6376,3.6376,3.6375,3.6341,3.639,3.647,3.6476,3.6373,3.6373,3.6372,0,3.6603,3.6593,3.6602,3.6594,3.6561,3.6566,3.6552,3.6531,3.6526,3.6515,3.6511,3.65,3.6494,3.6486,3.6455,3.6435,3.6463,3.6429,3.645,3.6451,3.6459,3.6459,3.6538,3.6457,3.6456,3.6456,3.6456,0,3.6666,3.6678,3.6631,3.6637,3.6649,3.6612,3.6625,3.6607,3.6589,3.6589,3.6553,3.6554,3.6514,3.6511,3.6487,3.6493,3.6491,3.6479,3.6472,3.6482,3.6484,3.6479,3.6475,3.6458,3.6458,3.6457,3.6457,0,3.6744,3.6713,3.672,3.6687,3.6679,3.669,3.6661,3.6665,3.6642,3.6644,3.6642,3.6607,3.6601,3.657,3.6557,3.654,3.6556,3.6543,3.6562,3.6558,3.658,3.6579,3.666,3.6669,3.6582,3.6583,3.6584,0,3.6786,3.6794,3.6762,3.676,3.6748,3.6745,3.6739,3.6702,3.6698,3.6675,3.6681,3.6672,3.6663,3.6655,3.6629,3.6618,3.6604,3.6634,3.6603,3.6612,3.6604,3.6604,3.6604,3.664,3.6642,3.6643,3.6643,0,3.6864,3.6848,3.6841,3.6828,3.6822,3.6811,3.6797,3.6797,3.6756,3.6753,3.6746,3.6739,3.6725,3.6716,3.67,3.6686,3.6658,3.6653,3.6657,3.6667,3.6678,3.6672,3.658,3.6652,3.6651,3.665,3.665,3.6649,3.6925,3.693,3.6907,3.69,3.6886,3.6873,3.6874,3.6852,3.6845,3.6831,3.6809,3.6805,3.6784,3.676,3.6747,3.6743,3.6727,3.6734,3.6735,3.6737,3.6742,3.6679,3.674,3.674,3.674,3.6739,3.6739,0,3.7,3.6983,3.6977,3.6958,3.6953,3.6926,3.6909,3.6906,3.6902,3.6885,3.6876,3.6867,3.6858,3.683,3.6818,3.6819,3.6806,3.6817,3.6817,3.6814,3.6757,3.6754,3.6828,3.6828,3.6828,3.6828,3.6828,3.6828,3.7039,3.7045,3.7026,3.7025,3.7007,3.7003,3.6995,3.6983,3.6968,3.696,3.6952,3.6934,3.6911,3.6897,3.6887,3.6878,3.6875,3.6891,3.6878,3.6826,3.6818,3.681,3.6807,3.6891,3.6891,3.6935,3.6936,3.6936]},{"header":{"parameterUnit":"m.s-1","parameterCategory":1,"la1":30.2991,"la2":30.254,"lo1":-89.0895,"lo2":-89.0444,"dy":0.0017,"dx":0.0017,"nx":28,"ny":28,"refTime":"2024-05-31T21:00:00:Z","depth":0,"parameterNumber":3,"parameterNumberName":"V-component_of_WINDS"},"data":[0,0,0,0,0,0,0,0,0,0,0,0,0,0,0,0,0,0,0,0,0,0,0,0,0,0,0,0,0,0,0,0,0,0,0,0,0,0,0,0,0,0,0,0,0,0,0,0,0,0,0,0,0,0,0,0,0,0,5.2216,5.2217,0,5.2286,5.2287,5.2288,5.23,5.2299,5.2298,5.2298,5.2362,5.2364,5.2367,0,0,0,0,0,0,0,0,0,0,0,0,0,5.2084,5.2086,5.2216,5.2217,5.2218,5.2286,5.2287,5.2288,5.23,5.2299,5.2298,5.2298,5.2361,5.2364,5.2367,0,0,0,0,0,0,0,0,0,0,0,0,0,5.2146,5.2087,5.2216,5.2232,5.2234,5.2286,5.2287,5.2288,5.23,5.2299,5.2298,5.2297,5.2361,5.2364,5.2367,5.2405,0,0,5.2377,5.2379,0,0,0,0,0,0,0,0,5.2142,5.2151,5.2229,5.2231,5.2234,5.2283,5.2264,5.2327,5.23,5.2275,5.2298,5.2297,5.2336,5.2341,5.2356,5.2408,5.2411,5.2378,5.238,5.2381,5.2382,0,0,0,0,0,0,0,5.2138,5.2148,5.2244,5.223,5.2233,5.2233,5.2241,5.2276,5.2309,5.2277,5.2278,5.2286,5.2337,5.2353,5.2358,5.2412,5.2378,5.2381,5.2383,5.2384,5.2498,5.2498,0,0,0,0,0,0,5.2132,5.2144,5.2241,5.2246,5.2185,5.2236,5.2245,5.2268,5.2309,5.2314,5.2287,5.2287,5.2348,5.2354,5.236,5.2407,5.2381,5.2384,5.2386,5.2497,5.2498,5.2499,0,0,0,0,0,0,5.2129,5.2141,5.2239,5.2195,5.2208,5.2239,5.2265,5.227,5.2286,5.2317,5.2322,5.2298,5.2347,5.2355,5.2394,5.241,5.2386,5.2389,5.2495,5.2497,5.2498,5.2502,0,0,0,0,0,0,5.2125,5.214,5.2157,5.2196,5.221,5.2274,5.2266,5.2272,5.2293,5.2293,5.2328,5.2333,5.2347,5.2389,5.2398,5.2414,5.2392,5.2494,5.2496,5.2498,5.25,5.2503,5.2506,0,0,0,0,0,5.2121,5.2153,5.2157,5.2169,5.2233,5.2275,5.2283,5.2301,5.2294,5.231,5.2329,5.2332,5.2407,5.2393,5.2403,5.242,5.2493,5.2496,5.2498,5.2499,5.2503,5.2506,0,0,0,0,0,0,5.2112,5.2159,5.2164,5.2211,5.2239,5.2277,5.2298,5.2304,5.2333,5.2331,5.235,5.2358,5.2395,5.2411,5.2396,5.2458,5.2449,5.2453,5.2447,5.245,5.2453,5.2448,5.2394,0,0,0,0,0,5.2117,5.215,5.2187,5.2225,5.2239,5.2266,5.2285,5.2297,5.2326,5.2337,5.2359,5.2385,5.2414,5.2433,5.2462,5.2503,5.2509,5.2519,5.2522,5.2524,5.2527,5.2548,5.2553,5.2506,5.2506,5.2506,0,0,5.2125,5.2154,5.2174,5.2224,5.2248,5.2279,5.2276,5.231,5.2332,5.2341,5.238,5.2397,5.2427,5.2467,5.2485,5.2481,5.2541,5.2526,5.2528,5.253,5.2551,5.2555,5.2559,5.2508,5.2507,5.2507,0,0,5.2156,5.2182,5.2216,5.224,5.2276,5.2294,5.2301,5.2338,5.2351,5.2391,5.2398,5.2423,5.2474,5.2494,5.2512,5.2549,5.2552,5.2558,5.2571,5.2592,5.2595,5.2599,5.2611,5.2616,5.2561,5.2561,5.2561,0,5.216,5.2211,5.2232,5.2266,5.2287,5.2299,5.2332,5.2353,5.2395,5.2408,5.2403,5.2467,5.2487,5.2532,5.2541,5.2555,5.2563,5.2554,5.2594,5.2597,5.26,5.2613,5.2617,5.2561,5.2561,5.2561,5.2561,0,5.2215,5.2249,5.2272,5.2316,5.2339,5.2372,5.2395,5.2416,5.2425,5.2442,5.248,5.2506,5.254,5.2551,5.2559,5.2596,5.2592,5.259,5.2581,5.2605,5.2617,5.2622,5.2562,5.2562,5.2562,5.2562,0,0,5.2243,5.2298,5.2306,5.2325,5.2366,5.2391,5.2423,5.2459,5.2476,5.2504,5.253,5.2572,5.2571,5.259,5.26,5.2618,5.2645,5.2614,5.2615,5.2618,5.2686,5.2687,5.2693,5.2647,5.2648,5.2649,5.2683,0,5.2279,5.234,5.2359,5.2409,5.2441,5.2451,5.2479,5.2505,5.2521,5.2548,5.2564,5.2594,5.259,5.2602,5.262,5.2638,5.2659,5.2636,5.267,5.2671,5.2662,5.2699,5.27,5.2732,5.2688,5.2689,5.269,0,5.2329,5.2361,5.2415,5.245,5.2464,5.2489,5.2522,5.2548,5.2577,5.2587,5.2609,5.2617,5.2649,5.2638,5.268,5.2664,5.2678,5.2689,5.2691,5.2694,5.2682,5.2703,5.2742,5.2747,5.2697,5.2697,5.2696,0,5.2343,5.2399,5.2439,5.2455,5.2498,5.2515,5.2533,5.2561,5.2581,5.2608,5.2621,5.2651,5.2667,5.2689,5.2705,5.2696,5.2745,5.2736,5.2753,5.2752,5.2763,5.2762,5.2805,5.2773,5.2773,5.2773,5.2772,0,5.2381,5.2413,5.2446,5.247,5.2506,5.2526,5.256,5.2578,5.2603,5.2628,5.2638,5.2661,5.2681,5.2706,5.2718,5.275,5.2757,5.2765,5.2768,5.2764,5.2763,5.2774,5.2772,5.2774,5.2774,5.2773,5.2773,0,5.2404,5.2427,5.2471,5.2508,5.2518,5.2543,5.2573,5.2595,5.2612,5.2644,5.2653,5.2678,5.2708,5.2726,5.2763,5.2771,5.2806,5.2808,5.2798,5.2799,5.2815,5.2813,5.2865,5.2873,5.2836,5.2837,5.2837,0,5.2426,5.2452,5.2492,5.2512,5.2531,5.2561,5.2582,5.2601,5.2622,5.2656,5.2673,5.2705,5.2731,5.2778,5.2798,5.2826,5.2828,5.2845,5.2832,5.2828,5.2828,5.2826,5.2828,5.2846,5.2847,5.2847,5.2847,0,5.2463,5.2474,5.2504,5.2539,5.2564,5.2591,5.2618,5.2632,5.2656,5.2678,5.271,5.2731,5.277,5.28,5.2829,5.2845,5.2849,5.2851,5.2856,5.2853,5.2846,5.2849,5.2803,5.285,5.2849,5.2849,5.2849,5.2849,5.2486,5.2509,5.2541,5.2575,5.2597,5.2622,5.2645,5.2665,5.2693,5.2728,5.2737,5.277,5.2796,5.2837,5.2854,5.2878,5.2875,5.2883,5.2885,5.2886,5.2887,5.2842,5.2883,5.2883,5.2883,5.2883,5.2883,0,5.2523,5.2545,5.2575,5.2614,5.2639,5.2644,5.2673,5.2694,5.2724,5.2749,5.2775,5.2811,5.284,5.2862,5.2891,5.2907,5.2909,5.2914,5.2912,5.2916,5.2888,5.288,5.2911,5.2911,5.2911,5.2911,5.2911,5.2911,5.2546,5.2584,5.2598,5.2647,5.2667,5.2703,5.2719,5.2741,5.2761,5.2802,5.2827,5.2842,5.2865,5.2896,5.2922,5.2928,5.2937,5.2941,5.2947,5.2921,5.2918,5.2915,5.2908,5.2944,5.2944,5.2973,5.2973,5.2973]}]]